COSMOS 1550

Satellite information

Favourite Embed

Satellite Type and Status

PAYLOADIN ORBIT

Key statistics

Satellite COSMOS 1550 at a glance.

Uptime

15145

Days in orbit

Revolutions

≈ 13.7

Per day

Orbit

LEO

Low Earth Orbit

Inclination

83.0

Latest

Satellite identification and parameters

Extended collection of information and parameters for COSMOS 1550.

Object identification

Identified? True

Debris? False

Object name: COSMOS 1550

International designator: 1984-043A

Object number (NORAD): 14965

Object ID (CCSDS): 14965

Country: COMMONWEALTH OF INDEPENDENT STATES (CIS)

Current information (Y/N): Y

RCS size: LARGE

Orbital parameters

Period: 104.88 minutes

Inclination: 82.9765 deg

SMA: 7366.953 km

Apoapsis: 1006.92 km

Periapsis: 970.717 km

RAAN: 31.7198 deg

Eccentricy: 0.00245711

Argument of periapsis: 310.8094 deg

Mean anomaly: 164.9032 deg

Mean motion: 13.73001057 rev/day

Mean motion (dot): 0.00000083 rev/day2

B* drag term: 0.000073876694 1/REarth

Two-line elements (TLE)

Creation date: Oct. 27, 2025, 2:46 a.m.

Reference frame: TEME

Reference center: EARTH

Epoch: Oct. 26, 2025, 7:04 p.m. UTC

TLE line 0: 0 COSMOS 1550

TLE line 1: 1 14965U 84043A 25299.79457064 .00000083 00000-0 73877-4 0 9990

TLE line 2: 2 14965 82.9765 31.7198 0024571 310.8094 164.9032 13.73001057 77777

Live tracking on map

Real-time ground track for satellite COSMOS 1550.

In-orbit conjunctions

There are no conjunctions computed for COSMOS 1550, at the moment. Check back to stay up to date, as we update our databases every day.

Go to all conjunctions

Associated space launch

Optical film-return reconnaissance satellite

COSMOS 1550 was lifted into orbit during the mission ‘Soyuz U | Zenit-6U 95’, on board a Soyuz U space rocket.

The launch took place on May 11, 1984, 1 p.m. from 41/1.

For more information about the launch, click the button.

Launch to space Soyuz U | Zenit-6U 95
Soyuz U | Zenit-6U 95

Agency: N/A

Status: Launch Successful

Launch date: May 11, 1984, 1 p.m. UTC

Rocket: Soyuz U

Launch pad: 41/1

Location: Plesetsk Cosmodrome, Russian Federation

...

Latest news about this satellite

There are no fresh news available about this satellite. Check back as we update our databases every day.


Newsletter sign-up

Weekly statistics, charts and insights to help you stay on top of the space industry.